Location: Pace/Milton
(30.6162°N, 87.1503°W)
Time: 13:08:05
(UTC-06:00)

ISS - Pass Details

Date: 09 December 2021
Orbit: 413 x 422 km, 51.6° (Epoch: 24 January)

Event Time Altitude Azimuth Distance (km) Brightness Sun altitude
Rises 17:57:37 0° 308° (NW) 2,372 0.6 -14.8°
Reaches altitude 10° 17:59:48 10° 300° (WNW) 1,503 -0.4 -15.2°
Maximum altitude 18:02:58 39° 230° (SW) 645 -2.3 -15.9°
Drops below altitude 10° 18:06:07 10° 160° (SSE) 1,488 -1.0 -16.5°
Enters shadow 18:08:44 -2° 151° (SSE) 2,533 0.1 -17.0°
